User: anonymous   Login
Location: Unspecified
(0.0000°N, 0.0000°E)
Time: 19:58:27
(UTC+00:00)
Language:

PERSEUS M1 - Orbit

View from above orbital plane
View from above orbital plane
View from above satellite
View from above satellite

Ground track
Ground track

The orbit data is extracted from the following two-line orbital elements,

1 40039U 14033AF  17144.96052462 +.00000104 +00000-0 +18275-4 0  9990
2 40039 097.9147 053.4204 0014902 023.1850 337.0034 14.85841257158311
Epoch (UTC): 24 May 2017 23:03:09
Eccentricity: 0.0014902
inclination: 97.9147°
perigee height: 600 km
apogee height: 621 km
right ascension of ascending node: 53.4204°
argument of perigee: 23.1850°
revolutions per day: 14.85841257
mean anomaly at epoch: 337.0034°
orbit number at epoch: 15831

The dashed part of the orbit path shows where the satellite is in the earth's shadow,  

DLR